COSMOS 1275 DEB, 42230

Orbit data source: Space-Track

COSMOS 1275 DEB, 42230 is space debris in LEO originally from a launch on Thu, 04 Jun 1981 UTC launched from the Plesetsk Missile And Space Complex (PKMTR). Debris objects in space refer to the collection of defunct objects orbiting the Earth. Examples of debris include non-operational satellites, rocket bodies, and fragments generated from explosions, collisions, or faulty payload assembly.

Loading next visibility...
Identifier
42230, 1981-053UW
Orbit
LEO
Country
Flag of CISCIS
Related business
Manufacturer
Unknown
Mission
Spacecraft
Bus & Motor
Unknown
Mass
Unknown
Launch date (UTC)
1981-06-04 (45 years ago)
Launch vehicle
Unknown
Launch site
Plesetsk Missile And Space Complex (PKMTR)
Object type
Payload
Rocket body
Debris
Shape & HBR
Unknown shape, 0.1 m
Radar Cross Section
Small (<0.1 m²)

Expand to show TLE details & history
Last TLE update: 1 week ago

TLE from 1 week ago
0 COSMOS 1275 DEB
1 42230U 81053UW  26057.26554375  .00002840  00000-0  14185-2 0  9990
2 42230  82.7490  52.9468 0037009 268.6635  91.0304 14.16178902611309
Epoch: 2026-02-26T06:22Z
TLE epoch observation values (Epoch: 2026-02-26T06:22:22.980Z)
Latitude
0.00003°
Longitude
161.23221°
Altitude
841.836 km
Speed
7.432 km/s
True Right ascension
03h 31m 47s
True Declination
0° 00' 00"
Sunlit
Object was in daylight at epoch
Visualization orbit readout
Latitude
Unknown
Longitude
Unknown
Altitude
Unknown
Speed
Unknown
Apparent Right ascension
Unknown
Apparent Declination
Unknown
Sunlit
N/A
Visualization observer readout
Local Sidereal Time
07:18:14
Azimuth
Unknown
Elevation
Unknown
Doppler factor
Unknown
Orbital elements
Apogee altitude
862.101 km
Perigee altitude
808.708 km
Semi-major axis
7,213.541 km
Eccentricity
0.0037
Inclination
82.749°
RAAN
52.9468°
Arg. of periapsis
268.6635°
True anomaly
91.45438°
Mean anomaly
91.0304°
Eccentric anomaly
91.2424°
Mean motion
3.54259 °/min
Orbital period
101.62 mins
BSTAR
0.0014185
Loading maneuver chart data...
Computing Atmospheric mass density...
Loading historical data...
Loading historical data...
Loading historical data...
Loading historical data...
Loading historical data...
Loading historical data...
Loading historical data...

Documentation

Showing up to 5 results
|